Regional Weather Roundup
Issued by NWS

Home | Current Version | Previous Version | Graphics & Text | Print | Product List | Glossary On
Versions: 1 2 3 4 5 6 7 8 9 10 11 12 13 14 15 16 17 18 19 20 21 22 23 24 25 26 27 28 29 30 31 32 33 34 35 36 37 38 39 40 41 42 43 44 45 46 47 48 49 50
000
ASUS43 KBIS 191820
RWRND

NORTH DAKOTA REGIONAL WEATHER ROUNDUP
NATIONAL WEATHER SERVICE BISMARCK ND
100 PM CDT FRI SEP 19 2014

NOTE: "FAIR" INDICATES FEW OR NO CLOUDS BELOW 12,000 FEET WITH NO
SIGNIFICANT WEATHER AND/OR OBSTRUCTIONS TO VISIBILITY.


NDZ001>003-009>011-017-191900-
NORTHWEST NORTH DAKOTA

CITY           SKY/WX    TMP DP  RH WIND       PRES   REMARKS
WILLISTON      SUNNY     78  49  35 W21G32    29.64R
6HR MIN TEMP:  59; 6HR MAX TEMP:  78;

MINOT          SUNNY     80  48  32 SW21G28   29.56F
MINOT AFB      MOSUNNY   75  52  43 NW16      29.56S
$$

NDZ018>021-031>035-040>046-191900-
SOUTHWEST NORTH DAKOTA

CITY           SKY/WX    TMP DP  RH WIND       PRES   REMARKS
BISMARCK       SUNNY     82  56  40 W7        29.65R
6HR MIN TEMP:  65; 6HR MAX TEMP:  82; 6HR PCP:  0.01;

DICKINSON      SUNNY     77  48  35 W17G26    29.72R
GARRISON         N/A     79  51  37 W15G28    29.61S
6HR MIN TEMP:  63; 6HR MAX TEMP:  79; 6HR PCP:  0.01;

HETTINGER ARPT MOSUNNY   78  48  34 W21       29.76S
$$

NDZ004>008-012>016-024-026-027-054-191900-
NORTHEAST NORTH DAKOTA

CITY           SKY/WX    TMP DP  RH WIND       PRES   REMARKS
GRAND FORKS    CLOUDY    68  65  90 S14       29.53F
GRND FRKS AFB  CLOUDY    70  68  92 S12       29.53S
DEVILS LAKE    SUNNY     75  59  57 W14G21    29.54S
$$

NDZ022-023-025-028>030-036>039-047>053-191900-
SOUTHEAST NORTH DAKOTA

CITY           SKY/WX    TMP DP  RH WIND       PRES   REMARKS
FARGO          LGT RAIN  69  63  81 S14       29.61R
6HR MIN TEMP:  62; 6HR MAX TEMP:  69; 6HR PCP: TRACE;

JAMESTOWN      PTSUNNY   77  63  61 W14       29.58F
$$




USA.gov is the U.S. government's official web portal to all federal, state and local government web resources and services.